カタログに戻る

GLOBALSTAR M098

運用中通信LEO
NORAD 100325·PAYLOAD·🇺🇸 United States

打ち上げ Aug 16, 2026 から Cape Canaveral Space Force Station

Loading…

次のパス (今後24時間)

TLE

最新Source: Space-Track

元期: Sep 14, 2026, 21:10 UTC

1 A0325U 26185A   26257.88234498  .00000232  00000-0  81207-4 0  9999
2 A0325  51.9954 109.7390 0009907 329.4885  30.5494 14.63733207  4373

AllMySatでGLOBALSTAR M098をリアルタイム追跡

Download on the App Store